Regional Weather Roundup
Issued by NWS Little Rock, AR

Home | Current Version | Previous Version | Text Only | Print | Product List | Glossary Off
Versions: 1 2 3 4 5 6 7 8 9 10 11 12 13 14 15 16 17 18 19 20 21 22 23 24 25 26 27 28 29 30 31 32 33 34 35 36 37 38 39 40 41 42 43 44 45 46 47 48 49 50

000
ASUS44 KLZK 171405
RWRLZK

WEATHER ROUNDUP FOR ARKANSAS
NATIONAL WEATHER SERVICE LITTLE ROCK AR
900 AM CDT TUE OCT 17 2017

NOTE: "FAIR" INDICATES FEW OR NO CLOUDS BELOW 12,000 FEET WITH NO
SIGNIFICANT WEATHER AND/OR OBSTRUCTIONS TO VISIBILITY.

ARZ001-003-010-029-171500-
NORTHWEST ARKANSAS

CITY           SKY/WX    TMP DP  RH WIND       PRES   REMARKS
FAYETTEVILLE   MOSUNNY   42  42 100 CALM      30.33R
FORT SMITH     MOSUNNY   50  48  93 NE7       30.34R
HARRISON       MOSUNNY   45  42  89 SE6       30.34R
BENTONVILLE    MOSUNNY   50  42  74 S8        30.34R
ROGERS         MOSUNNY   50  43  77 SE9       30.32S
SILOAM SPGS    MOSUNNY   48  43  82 SE6       30.32R
HIGHFILL       MOSUNNY   47  44  90 SE3       30.32R
SPRINGDALE     SUNNY     48  41  76 SE5       30.34R
$$

ARZ004-005-016-171500-
NORTH CENTRAL ARKANSAS

CITY           SKY/WX    TMP DP  RH WIND       PRES   REMARKS
BATESVILLE     CLOUDY    46  43  89 CALM      30.38R
FLIPPIN        MOSUNNY   42  40  92 CALM      30.37R
MTN HOME       MOSUNNY   49  43  80 S3        30.34R
$$

ARZ040-041-171500-
WEST CENTRAL ARKANSAS

CITY           SKY/WX    TMP DP  RH WIND       PRES   REMARKS
MENA           SUNNY     45  45 100 CALM      30.35S
$$

ARZ009-017-025-026-028-171500-
NORTHEAST ARKANSAS

CITY           SKY/WX    TMP DP  RH WIND       PRES   REMARKS
JONESBORO      MOSUNNY   53  45  74 NE3       30.38R
NEWPORT        MOSUNNY   48  45  89 NE5       30.38R
WALNUT RIDGE   MOSUNNY   47  44  90 NE3       30.38R
BLYTHEVILLE    SUNNY     53  47  79 E7        30.37R
NW BLYTHEVILLE SUNNY     52  45  76 NE3       30.37
$$

ARZ022-023-033-042-044-171500-
CENTRAL ARKANSAS

CITY           SKY/WX    TMP DP  RH WIND       PRES   REMARKS
LITTLE ROCK    MOSUNNY   51  45  79 E5        30.36R
N LITTLE ROCK    N/A     56  45  67 E3        30.38R
JACKSONVILLE   MOSUNNY   49  42  77 CALM      30.35R
SEARCY         MOSUNNY   50  45  83 N6        30.38R
HOT SPRINGS    MOSUNNY   46  46 100 CALM      30.36R FOG
RUSSELLVILLE   SUNNY     47  45  93 CALM      30.36R
CLINTON        FAIR      43  41  93 CALM      30.38R
$$

ARZ036-171500-
EAST ARKANSAS

CITY           SKY/WX    TMP DP  RH WIND       PRES   REMARKS
WEST MEMPHIS   SUNNY     53  46  77 E6        30.35S
$$

ARZ050-053-066-070-073-171500-
SOUTHWEST ARKANSAS

CITY           SKY/WX    TMP DP  RH WIND       PRES   REMARKS
ARKADELPHIA    FAIR      48  45  89 CALM      30.36R
CAMDEN         SUNNY     46  41  81 CALM      30.35R
TEXARKANA      SUNNY     48  43  82 NE3       30.34R
EL DORADO      SUNNY     51  44  77 NE5       30.34R
$$

ARZ056-057-069-171500-
SOUTHEAST ARKANSAS

CITY           SKY/WX    TMP DP  RH WIND       PRES   REMARKS
PINE BLUFF     SUNNY     53  43  68 NE5       30.35R
STUTTGART      SUNNY     52  45  77 E6        30.35R
MONTICELLO     SUNNY     53  45  74 NE8       30.33R

$$





USA.gov is the U.S. government's official web portal to all federal, state and local government web resources and services.